Location: Madrid
(40.4000°N, 3.6830°W)
Time: 12:26:01
(UTC+01:00)

ISS - Pass Details

Date: 25 October 2020
Orbit: 417 x 420 km, 51.6° (Epoch: 29 October)

Event Time Altitude Azimuth Distance (km) Brightness Sun altitude
Exits shadow 05:52:29 62° 166° (SSE) 472 -3.6 -20.5°
Maximum altitude 05:52:42 65° 140° (SE) 462 -3.5 -20.4°
Drops below altitude 10° 05:56:02 10° 58° (ENE) 1,495 -0.1 -19.8°
Sets 05:58:08 0° 56° (NE) 2,362 1.0 -19.4°
